Station SXHW3 - Saxon Harbor, WI Image indicating link to RSS feed of recent meteorological observations for station SXHW3


Conditions at SXHW3 as of
(7:40 am CDT)
1240 GMT on 07/20/2024:
     

Click on the graph icon in the table below to see a time series plot of the last five days of that observation.

5-day plot - Wind Direction Wind Direction (WDIR): S ( 180 deg true )
5-day plot - Wind Speed Wind Speed (WSPD): 2.9 kts
5-day plot - Wind Gust Wind Gust (GST): 7.0 kts
5-day plot - Atmospheric Pressure Atmospheric Pressure (PRES):30.06 in
5-day plot - Air Temperature Air Temperature (ATMP): 70.7 °F
5-day plot - Wind Speed at 10 Meters Wind Speed at 10 meters (WSPD10M): 3.9 kts
5-day plot - Wind Speed at 20 Meters Wind Speed at 20 meters (WSPD20M): 3.9 kts
5-day plot -  Wind Speed, Wind Gust and Atmospheric Pressure Combined plot of Wind Speed, Gust, and Air Pressure
Previous observations
TIME
(CDT)
5-day plot - Wind Direction
WDIR
 
5-day plot - Wind Speed
WSPD
kts
5-day plot - Wind Gust
GST
kts
5-day plot - Wave Height
WVHT
ft
5-day plot - Dominant Wave Period
DPD
sec
5-day plot - Average Wave Period
APD
sec
5-day plot - Mean Wave Direction
MWD
 
5-day plot - Atmospheric Pressure
PRES
in
5-day plot - Pressure Tendency
PTDY
in
5-day plot - Air Temperature
ATMP
°F
5-day plot - Water Temperature
WTMP
°F
5-day plot - Dew Point
DEWP
°F
5-day plot - Salinity
SAL
psu
5-day plot - Visibility
VIS
nmi
5-day plot - Tide (above MLLW)
TIDE
ft
2024-07-20 07:30 amSSW 5.1 8.9----30.06- 70.2-----
2024-07-20 07:20 am S 6.0 8.0----30.05- 70.2-----
2024-07-20 07:10 am S 4.1 7.0----30.06- 69.8-----
2024-07-20 07:00 am S 4.1 7.0----30.06+0.04 69.6-----
2024-07-20 06:50 amSSW 2.9 9.9----30.05- 69.3-----
2024-07-20 06:40 am S 6.0 9.9----30.05- 69.6-----
2024-07-20 06:30 am S 7.0 8.9----30.04- 69.6-----
2024-07-20 06:20 amSSW 8.0 9.9----30.04- 69.6-----
2024-07-20 06:10 amSSW 7.0 12.0----30.04- 70.0-----
2024-07-20 06:00 amSSW 7.0 15.0----30.04+0.02 69.8-----
2024-07-20 05:50 amSSW 8.0 13.0----30.04- 69.1-----
2024-07-20 05:40 am S 7.0 12.0----30.04- 69.4-----
2024-07-20 05:30 am S 7.0 11.1----30.04- 69.4-----
2024-07-20 05:20 amSSW 6.0 9.9----30.04- 69.8-----
2024-07-20 05:10 am S 7.0 12.0----30.03- 70.0-----
2024-07-20 05:00 amSSW 8.9 14.0----30.03+0.01 70.2-----
2024-07-20 04:50 amSSW 8.9 14.0----30.03- 70.2-----
2024-07-20 04:40 amSSW 8.0 14.0----30.02- 69.6-----
2024-07-20 04:30 amSSW 8.9 13.0----30.02- 69.1-----
2024-07-20 04:20 am S 7.0 11.1----30.02- 68.9-----
2024-07-20 04:10 amSSW 8.0 13.0----30.02- 68.7-----
2024-07-20 04:00 am S 8.9 11.1----30.02+0.00 68.5-----
2024-07-20 03:50 am S 8.0 11.1----30.02- 68.4-----
2024-07-20 03:40 am S 8.0 11.1----30.02- 68.0-----
2024-07-20 03:30 am S 7.0 9.9----30.02- 67.3-----
2024-07-20 03:20 am S 7.0 9.9----30.02- 67.1-----
2024-07-20 03:10 am S 6.0 8.9----30.02- 66.9-----
2024-07-20 03:00 am S 6.0 8.9----30.02-0.01 66.9-----
2024-07-20 02:50 am S 6.0 9.9----30.02- 66.9-----
2024-07-20 02:40 am S 7.0 9.9----30.02- 66.6-----
2024-07-20 02:30 am S 6.0 8.9----30.02- 66.6-----
2024-07-20 02:20 am S 7.0 8.9----30.02- 66.6-----
2024-07-20 02:10 am S 6.0 9.9----30.02- 66.7-----
2024-07-20 02:00 am S 6.0 8.9----30.02-0.01 66.6-----
2024-07-20 01:50 am S 5.1 7.0----30.02- 66.7-----
2024-07-20 01:40 amSSW 5.1 8.9----30.02- 66.9-----
2024-07-20 01:30 am S 5.1 8.9----30.02- 67.1-----
2024-07-20 01:20 am S 6.0 8.9----30.02- 67.5-----
2024-07-20 01:10 am S 6.0 9.9----30.02- 67.6-----
2024-07-20 01:00 am S 6.0 8.0----30.02-0.01 67.6-----
2024-07-20 12:50 am S 6.0 8.9----30.02- 67.6-----
2024-07-20 12:40 am S 5.1 8.0----30.02- 67.5-----
2024-07-20 12:30 am S 6.0 8.0----30.02- 68.0-----
2024-07-20 12:20 am S 4.1 8.0----30.02- 67.1-----
2024-07-20 12:10 amSSW 5.1 8.0----30.02- 67.3-----
2024-07-20 12:00 am S 5.1 8.0----30.03+0.01 67.3-----
2024-07-19 11:50 pm S 5.1 8.0----30.03- 67.3-----
2024-07-19 11:40 pm S 6.0 7.0----30.03- 66.9-----
2024-07-19 11:30 pm S 5.1 7.0----30.03- 66.9-----
2024-07-19 11:20 pm S 4.1 6.0----30.03- 66.7-----
2024-07-19 11:10 pmSSW 5.1 7.0----30.03- 66.9-----
2024-07-19 11:00 pm S 5.1 7.0----30.03+0.01 67.1-----
2024-07-19 10:50 pmSSW 4.1 5.1----30.03- 67.3-----
2024-07-19 10:40 pmSSW 4.1 6.0----30.03- 67.6-----
2024-07-19 10:30 pmSSW 4.1 6.0----30.02- 68.2-----
2024-07-19 10:20 pmSSW 5.1 6.0----30.03- 68.2-----
2024-07-19 10:10 pmSSW 4.1 6.0----30.02- 68.4-----
2024-07-19 10:00 pm S 5.1 7.0----30.03+0.02 68.9-----
2024-07-19 09:50 pm S 4.1 6.0----30.03- 68.2-----
2024-07-19 09:40 pm S 4.1 6.0----30.02- 68.5-----
2024-07-19 09:30 pm S 4.1 6.0----30.02- 68.5-----
2024-07-19 09:20 pm S 5.1 6.0----30.02- 69.1-----
2024-07-19 09:10 pm S 5.1 6.0----30.02- 69.6-----
2024-07-19 09:00 pm S 5.1 6.0----30.02+0.00 70.0-----
2024-07-19 08:50 pm S 5.1 7.0----30.02- 70.7-----
2024-07-19 08:40 pm S 4.1 6.0----30.02- 70.7-----
2024-07-19 08:30 pm S 1.9 2.9----30.02- 71.4-----
2024-07-19 08:20 pm S 1.9 4.1----30.02- 72.7-----
2024-07-19 08:10 pm S 2.9 2.9----30.02- 73.2-----
2024-07-19 08:00 pm S 2.9 2.9----30.02+0.00 73.2-----
2024-07-19 07:50 pm S 1.9 2.9----30.02- 74.5-----
2024-07-19 07:40 pm- 0.0 1.0----30.02- 77.9-----
2024-07-19 07:30 pm- 0.0 0.0----30.02- 78.4-----
2024-07-19 07:20 pm- 0.0 2.9----30.02- 77.9-----
2024-07-19 07:10 pm SW 1.0 2.9----30.01- 78.4-----
2024-07-19 07:00 pm E 2.9 5.1----30.01-0.02 78.1-----
2024-07-19 06:50 pmENE 5.1 5.1----30.01- 78.6-----
2024-07-19 06:40 pmENE 5.1 7.0----30.02- 78.4-----
2024-07-19 06:30 pmENE 6.0 7.0----30.02- 78.1-----
2024-07-19 06:20 pmENE 7.0 8.0----30.02- 77.7-----
2024-07-19 06:10 pm E 6.0 8.9----30.01- 76.5-----
2024-07-19 06:00 pm NE 7.0 11.1----30.02-0.03 76.5-----
2024-07-19 05:50 pm W 6.0 11.1----30.02- 81.7-----
2024-07-19 05:40 pm SW 6.0 9.9----30.02- 81.7-----
2024-07-19 05:30 pm SW 2.9 7.0----30.02- 81.3-----
2024-07-19 05:20 pmSSW 6.0 9.9----30.02- 81.1-----
2024-07-19 05:10 pm SW 7.0 11.1----30.02- 81.7-----
2024-07-19 05:00 pm SW 2.9 9.9----30.02-0.04 80.8-----
2024-07-19 04:50 pmWSW 8.0 12.0----30.03- 81.7-----
2024-07-19 04:40 pm W 5.1 12.0----30.03- 81.7-----
2024-07-19 04:30 pm SW 5.1 8.9----30.03- 82.0-----
2024-07-19 04:20 pm SW 6.0 12.0----30.03- 80.8-----
2024-07-19 04:10 pm SW 2.9 8.9----30.03- 81.9-----
2024-07-19 04:00 pmWSW 1.9 9.9----30.03-0.04 81.0-----
2024-07-19 03:50 pm W 5.1 8.9----30.04- 81.9-----
2024-07-19 03:40 pm SW 4.1 9.9----30.04- 81.0-----
2024-07-19 03:30 pmWSW 6.0 11.1----30.04- 80.8-----
2024-07-19 03:20 pm W 6.0 11.1----30.04- 79.7-----
2024-07-19 03:10 pmSSW 8.9 13.0----30.04- 80.2-----
2024-07-19 03:00 pm W 7.0 11.1----30.05-0.03 79.3-----
2024-07-19 02:50 pmWSW 8.0 13.0----30.05- 80.1-----
2024-07-19 02:40 pm W 8.0 14.0----30.05- 79.5-----
2024-07-19 02:30 pmSSW 7.0 13.0----30.06- 79.3-----
2024-07-19 02:20 pmWSW 8.0 14.0----30.06- 79.5-----
2024-07-19 02:10 pm W 8.9 15.9----30.06- 78.8-----
2024-07-19 02:00 pmWNW 5.1 12.0----30.06-0.03 78.8-----
2024-07-19 01:50 pmWSW 6.0 12.0----30.07- 79.3-----
2024-07-19 01:40 pm SW 11.1 15.9----30.07- 79.2-----
2024-07-19 01:30 pmSSW 6.0 12.0----30.06- 79.2-----
2024-07-19 01:20 pmWSW 9.9 15.0----30.07- 78.4-----
2024-07-19 01:10 pm SW 8.9 14.0----30.07- 78.3-----
2024-07-19 01:00 pm SW 9.9 15.0----30.07-0.03 78.1-----
2024-07-19 12:50 pm W 5.1 11.1----30.07- 78.3-----
2024-07-19 12:40 pmWSW 6.0 12.0----30.07- 78.4-----
2024-07-19 12:30 pm SW 5.1 9.9----30.07- 77.4-----
2024-07-19 12:20 pmWNW 1.9 8.0----30.07- 77.4-----
2024-07-19 12:10 pm W 4.1 9.9----30.08- 76.1-----
2024-07-19 12:00 pm W 4.1 9.9----30.08-0.04 76.6-----
2024-07-19 11:50 am W 7.0 12.0----30.08- 76.6-----
2024-07-19 11:40 am W 7.0 11.1----30.08- 77.0-----
2024-07-19 11:30 amWSW 4.1 11.1----30.08- 77.2-----
2024-07-19 11:20 am W 5.1 12.0----30.08- 75.9-----
2024-07-19 11:10 am W 5.1 12.0----30.09- 76.5-----
2024-07-19 11:00 amWSW 7.0 11.1----30.09-0.02 76.5-----
2024-07-19 10:50 amWSW 5.1 11.1----30.09- 75.9-----
2024-07-19 10:40 am W 6.0 9.9----30.08- 76.1-----
2024-07-19 10:30 amSSW 6.0 12.0----30.09- 74.8-----
2024-07-19 10:20 amWSW 7.0 9.9----30.09- 75.0-----
2024-07-19 10:10 amWSW 2.9 8.9----30.10- 74.1-----
2024-07-19 10:00 amWSW 7.0 9.9----30.10-0.01 73.8-----
2024-07-19 09:50 amSSW 6.0 9.9----30.10- 73.6-----
2024-07-19 09:40 amSSW 6.0 9.9----30.10- 73.2-----
2024-07-19 09:30 am SW 7.0 11.1----30.11- 72.9-----
2024-07-19 09:20 am SW 7.0 11.1----30.11- 71.8-----
2024-07-19 09:10 amWSW 7.0 12.0----30.11- 71.4-----
2024-07-19 09:00 amSSW 8.0 13.0----30.12+0.03 71.1-----
2024-07-19 08:50 am SW 8.0 12.0----30.12- 70.3-----
2024-07-19 08:40 amSSW 7.0 11.1----30.12- 69.8-----
2024-07-19 08:30 amSSW 7.0 11.1----30.11- 68.9-----
2024-07-19 08:20 am S 6.0 12.0----30.11- 67.6-----
2024-07-19 08:10 amSSW 8.0 11.1----30.11- 67.3-----
2024-07-19 08:00 amSSW 8.9 12.0----30.11+0.02 67.3-----
2024-07-19 07:50 amSSW 8.9 12.0----30.11- 67.3-----